Regional Weather Roundup
Issued by NWS Sioux Falls, SD

Home | Current Version | Previous Version | Graphics & Text | Print | Product List | Glossary Off
Versions: 1 2 3 4 5 6 7 8 9 10 11 12 13 14 15 16 17 18 19 20 21 22 23 24 25 26 27 28 29 30 31 32 33 34 35 36 37 38 39 40 41 42 43 44 45 46 47 48 49 50

000
ASUS43 KFSD 161002
RWRFSD

WEATHER ROUNDUP FOR SE SOUTH DAKOTA/SW MINNESOTA/NW IOWA
NATIONAL WEATHER SERVICE SIOUX FALLS SD
500 AM CDT WED AUG 16 2017

NOTE: "FAIR" INDICATES FEW OR NO CLOUDS BELOW 12,000 FEET WITH NO
SIGNIFICANT WEATHER AND OR OBSTRUCTIONS TO VISIBILITY.


SDZ038>040-050-052>070-161100-
SOUTHEAST SOUTH DAKOTA

CITY           SKY/WX    TMP DP  RH WIND       PRES   REMARKS
BROOKINGS      CLOUDY    65  64  97 S5        29.86F
CHAMBERLAIN    RAIN      66  66 100 CALM      29.84F
HURON          LGT RAIN  66  66 100 SW5       29.83F
MADISON        PTSUNNY   64  64 100 CALM      29.86F
MITCHELL       LGT RAIN  67  66  97 SW5       29.83F
SIOUX FALLS    CLOUDY    66  65  96 SE6       29.86F
WINNER         LGT RAIN  66  63  90 N3        29.85S
YANKTON        LGT RAIN  65  64  97 N8        29.82F
$$

MNZ071-072-080-081-089-090-097-098-161100-
SOUTHWEST MINNESOTA

CITY           SKY/WX    TMP DP  RH WIND       PRES   REMARKS
FAIRMONT       RAIN      65  64  97 CALM      29.90F FOG
JACKSON        CLOUDY    64  64 100 CALM      29.90S FOG
MARSHALL       CLOUDY    67  65  93 S7        29.87S
MONTEVIDEO     CLOUDY    64  64 100 S7        29.87S
PIPESTONE      CLOUDY    66  64  94 S5        29.88F FOG
REDWOOD FALLS  CLOUDY    66  62  87 SE10      29.88S
TRACY          CLOUDY    67  67  97 S8G16     29.88S
WINDOM         CLOUDY    66  64  94 SE8       29.90S FOG
WORTHINGTON    CLOUDY    66  65  96 S7        29.89F
$$

IAZ001>003-012>014-020>022-031-032-NEZ013-014-SDZ071-161100-
NORTHWEST IOWA

CITY           SKY/WX    TMP DP  RH WIND       PRES   REMARKS
CHEROKEE       CLOUDY    68  68 100 CALM      29.86F FOG
DENISON        CLOUDY    68  68 100 NE5       29.85F FOG
ESTHERVILLE    CLOUDY    65  65 100 E7        29.88F FOG
LE MARS        CLOUDY    66  66 100 CALM      29.86S
ORANGE CITY    DRIZZLE   66  66 100 E5        29.86F
SHELDON        CLOUDY    66  66 100 SE6       29.85F FOG
SIOUX CITY     LGT RAIN  68  67  96 N5        29.83F
SPENCER        CLOUDY    68  67  96 S5        29.88F FOG
STORM LAKE     FOG       68  68 100 SE3       29.86F VSB 1/4
$$

ABBREVIATIONS USED IN REMARKS
   TC - TEMPERATURE IN CELSIUS
  WCI - WIND CHILL INDEX
   HX - HEAT INDEX
  VSB - VISIBILITY





USA.gov is the U.S. government's official web portal to all federal, state and local government web resources and services.